DELTA 1 DEB

Satellite information

Favourite Embed

Satellite Type and Status

DEBRISIN ORBIT

Key statistics

Satellite DELTA 1 DEB at a glance.

Uptime

19037

Days in orbit

Revolutions

≈ 12.0

Per day

Orbit

SSO

Sun Synchronous Orbit

Inclination

101.8

Latest

Satellite identification and parameters

Extended collection of information and parameters for DELTA 1 DEB.

Object identification

Identified? True

Debris? True

Object name: DELTA 1 DEB

International designator: 1973-086HA

Object number (NORAD): 18870

Object ID (CCSDS): 18870

Country: UNITED STATES OF AMERICA (US)

Current information (Y/N): Y

RCS size: SMALL

Orbital parameters

Period: 120.491 minutes

Inclination: 101.7729 deg

SMA: 8080.979 km

Apoapsis: 1981.308 km

Periapsis: 1424.379 km

RAAN: 293.1871 deg

Eccentricy: 0.03445927

Argument of periapsis: 95.0341 deg

Mean anomaly: 269.0119 deg

Mean motion: 11.95107058 rev/day

Mean motion (dot): 0.00000748 rev/day2

B* drag term: 0.0087117767 1/REarth

Two-line elements (TLE)

Creation date: Dec. 18, 2025, 8:02 p.m.

Reference frame: TEME

Reference center: EARTH

Epoch: Dec. 18, 2025, 8:40 a.m. UTC

TLE line 0: 0 DELTA 1 DEB

TLE line 1: 1 18870U 73086HA 25352.36118536 .00000748 00000-0 87118-2 0 9994

TLE line 2: 2 18870 101.7729 293.1871 0344593 95.0341 269.0119 11.95107058561450

Live tracking on map

Real-time ground track for satellite DELTA 1 DEB.

In-orbit conjunctions

A list of the most updated potential collisions computed for object DELTA 1 DEB.

Target Orbit TCA Probability of collision Miss distance Type
COSMOS 1086 LEO 2025-10-04 01:34:36 0.0001316463 239.0 (m) PAYLOAD

Associated space launch

Meteorological satellite using radiometric imaging

DELTA 1 DEB was lifted into orbit during the mission ‘Delta 0300 | NOAA 3’, on board a Delta 0300 space rocket.

The launch took place on Nov. 6, 1973, 5:02 p.m. from Space Launch Complex 2W.

For more information about the launch, click the button.

Launch to space Delta 0300 | NOAA 3
Delta 0300 | NOAA 3

Agency: N/A

Status: Launch Successful

Launch date: Nov. 6, 1973, 5:02 p.m. UTC

Rocket: Delta 0300

Launch pad: Space Launch Complex 2W

Location: Vandenberg SFB, CA, USA

...

Latest news about this satellite

There are no fresh news available about this satellite. Check back as we update our databases every day.


Newsletter sign-up

Weekly statistics, charts and insights to help you stay on top of the space industry.